Location: Unspecified
(0.0000°N, 0.0000°E)
Time: 18:18:26
(UTC+00:00)

Courier 1B - All Passes

Search period start: 18 April 2019 00:00
Search period end: 28 April 2019 00:00
Orbit: 962 x 1209 km, 28.3° (Epoch: 17 April)

Date Brightness Start Highest point End Pass type
(mag) Time Alt. Az. Time Alt. Az. Time Alt. Az.
18 Apr - 02:10:44 10° NNW 02:14:40 17° NNE 02:18:37 10° ENE visible
18 Apr - 04:02:36 10° NW 04:09:00 60° NNE 04:15:36 10° ESE visible
18 Apr - 05:57:04 10° W 06:03:06 37° SSW 06:09:29 10° SE daylight
18 Apr - 07:55:31 10° SW 07:58:07 12° SSW 08:00:46 10° S daylight
18 Apr - 13:42:29 10° SSW 13:47:42 19° SSE 13:52:54 10° ESE daylight
18 Apr - 15:34:56 10° SW 15:42:39 56° SSE 15:50:07 10° ENE daylight
18 Apr - 17:29:40 10° WSW 17:37:04 47° NNW 17:44:09 10° NE daylight
18 Apr - 19:27:59 10° NW 19:31:52 15° NNW 19:35:39 10° N visible
19 Apr - 01:18:21 10° N 01:20:39 12° NNE 01:22:56 10° NE night (unlit)
19 Apr - 03:09:10 10° NW 03:15:14 42° NNE 03:21:25 10° E visible
19 Apr - 05:02:58 10° WNW 05:09:16 52° SSW 05:15:53 10° SE visible
19 Apr - 07:00:00 10° WSW 07:03:56 16° SSW 07:08:00 10° SSE daylight
19 Apr - 12:49:33 10° S 12:53:24 14° SSE 12:57:16 10° SE daylight
19 Apr - 14:41:16 10° SW 14:48:35 41° SSE 14:55:49 10° E daylight
19 Apr - 16:35:18 10° WSW 16:43:05 65° NNW 16:50:35 10° NE daylight
19 Apr - 18:32:21 10° WNW 18:37:44 20° NNW 18:42:55 10° NNE visible
20 Apr - 02:15:54 10° NNW 02:21:27 30° NNE 02:27:01 10° E visible
20 Apr - 04:09:03 10° WNW 04:15:30 73° SSW 04:22:11 10° SE visible
20 Apr - 06:05:03 10° WSW 06:09:52 21° SSW 06:14:53 10° SSE daylight
20 Apr - 11:57:39 10° S 11:59:01 10° SSE 12:00:23 10° SSE daylight
20 Apr - 13:47:44 10° SSW 13:54:29 31° SSE 14:01:13 10° E daylight
20 Apr - 15:41:10 10° WSW 15:49:05 87° NNW 15:56:49 10° ENE daylight
20 Apr - 17:37:13 10° W 17:43:38 28° NNW 17:49:49 10° NNE daylight
21 Apr - 01:22:44 10° NNW 01:27:35 22° NNE 01:32:23 10° ENE night (unlit)
21 Apr - 03:15:19 10° WNW 03:21:46 80° NNE 03:28:22 10° ESE visible
21 Apr - 05:10:27 10° W 05:15:56 28° SSW 05:21:36 10° SSE visible
21 Apr - 12:54:26 10° SSW 13:00:20 23° SSE 13:06:18 10° ESE daylight
21 Apr - 14:47:14 10° SW 14:55:04 71° SSE 15:02:51 10° ENE daylight
21 Apr - 16:42:25 10° W 16:49:34 38° NNW 16:56:31 10° NE daylight
21 Apr - 18:41:54 10° NW 18:44:41 12° NNW 18:47:25 10° N visible
22 Apr - 00:29:47 10° NNW 00:33:38 16° NNE 00:37:24 10° ENE night (unlit)
22 Apr - 02:21:42 10° NW 02:28:03 56° NNE 02:34:24 10° ESE visible
22 Apr - 04:16:08 10° W 04:22:05 39° SSW 04:28:12 10° SE visible
22 Apr - 06:14:39 10° SW 06:16:53 12° SSW 06:19:10 10° S daylight
22 Apr - 12:01:22 10° SSW 12:06:08 17° SSE 12:10:58 10° ESE daylight
22 Apr - 13:53:29 10° SW 14:01:03 52° SSE 14:08:39 10° ENE daylight
22 Apr - 15:47:56 10° WSW 15:55:32 51° NNW 16:02:59 10° NE daylight
22 Apr - 17:45:45 10° WNW 17:50:25 17° NNW 17:54:59 10° NNE daylight
22 Apr - 23:37:19 10° N 23:39:33 12° NNE 23:41:47 10° NE night (unlit)
23 Apr - 01:28:13 10° NW 01:34:18 39° NNE 01:40:17 10° E night (unlit)
23 Apr - 03:22:01 10° WNW 03:28:18 55° SSW 03:34:42 10° SE visible
23 Apr - 05:19:01 10° WSW 05:22:48 16° SSW 05:26:38 10° SSE visible
23 Apr - 11:08:47 10° S 11:11:51 13° SSE 11:14:59 10° SE daylight
23 Apr - 12:59:55 10° SW 13:06:59 39° SSE 13:14:11 10° E daylight
23 Apr - 14:53:42 10° WSW 15:01:30 69° NNW 15:09:17 10° NE daylight
23 Apr - 16:50:22 10° WNW 16:56:13 23° NNW 17:01:59 10° NNE daylight
24 Apr - 00:34:50 10° NNW 00:40:28 28° NNE 00:45:57 10° E night (unlit)
24 Apr - 02:28:04 10° WNW 02:34:35 78° SSW 02:41:05 10° SE visible
24 Apr - 04:24:02 10° WSW 04:28:49 21° SSW 04:33:40 10° SSE visible
24 Apr - 12:06:34 10° SSW 12:12:55 29° SSE 12:19:26 10° E daylight
24 Apr - 13:59:41 10° WSW 14:07:29 88° SSE 14:15:23 10° ENE daylight
24 Apr - 15:55:23 10° W 16:02:05 30° NNW 16:08:43 10° NNE daylight
24 Apr - 17:57:14 10° NNW 17:57:32 10° NNW 17:57:50 10° NNW daylight
24 Apr - 23:41:35 10° NNW 23:46:32 21° NNE 23:51:21 10° ENE night (unlit)
25 Apr - 01:34:15 10° NW 01:40:52 75° NNE 01:47:20 10° ESE night (unlit)
25 Apr - 03:29:25 10° W 03:34:56 29° SSW 03:40:30 10° SSE visible
25 Apr - 11:13:26 10° SSW 11:18:49 21° SSE 11:24:21 10° ESE daylight
25 Apr - 13:05:53 10° SW 13:13:28 66° SSE 13:21:17 10° ENE daylight
25 Apr - 15:00:45 10° W 15:07:59 40° NNW 15:15:14 10° NE daylight
25 Apr - 16:59:30 10° NW 17:03:10 14° NNW 17:06:48 10° N daylight
25 Apr - 22:48:30 10° NNW 22:52:31 16° NNE 22:56:25 10° ENE night (unlit)
26 Apr - 00:40:34 10° NW 00:47:07 53° NNE 00:53:25 10° ESE night (unlit)
26 Apr - 02:35:01 10° W 02:41:08 41° SSW 02:47:11 10° SE visible
26 Apr - 04:33:34 10° SW 04:35:46 12° SSW 04:38:00 10° S visible
26 Apr - 10:20:37 10° S 10:24:40 15° SSE 10:28:48 10° ESE daylight
26 Apr - 12:12:17 10° SW 12:19:28 49° SSE 12:26:57 10° ENE daylight
26 Apr - 14:06:25 10° WSW 14:13:55 55° NNW 14:21:35 10° NE daylight
26 Apr - 16:03:47 10° WNW 16:08:52 18° NNW 16:13:57 10° NNE daylight
26 Apr - 21:55:46 10° N 21:58:21 12° NNE 22:00:53 10° NE visible
26 Apr - 23:46:59 10° NW 23:53:18 38° NNE 23:59:20 10° E night (unlit)
27 Apr - 01:40:51 10° WNW 01:47:23 59° SSW 01:53:45 10° SE night (unlit)
27 Apr - 03:37:51 10° WSW 03:41:44 16° SSW 03:45:38 10° SSE visible
27 Apr - 09:28:44 10° S 09:30:26 11° SSE 09:32:10 10° SE daylight
27 Apr - 11:18:52 10° SW 11:25:29 35° SSE 11:32:23 10° E daylight
27 Apr - 13:12:20 10° WSW 13:19:55 74° NNW 13:27:45 10° NE daylight
27 Apr - 15:08:36 10° WNW 15:14:39 24° NNW 15:20:44 10° NNE daylight
27 Apr - 22:53:30 10° NNW 22:59:23 28° NNE 23:05:01 10° E night (unlit)
